Year,Month,Day,Hour,Minute,Value (Times are PST for temperature in C)
2018,12,08,07,40,6.20
2018,12,08,07,41,6.20
2018,12,08,07,42,6.20
2018,12,08,07,43,6.20
2018,12,08,07,44,6.30
2018,12,08,07,45,6.30
2018,12,08,07,46,6.30
2018,12,08,07,47,6.30
2018,12,08,07,48,6.30
2018,12,08,07,49,6.30
2018,12,08,07,50,6.30
2018,12,08,07,51,6.30
2018,12,08,07,52,6.30
2018,12,08,07,53,6.30
2018,12,08,07,54,6.30
2018,12,08,07,55,6.30
2018,12,08,07,56,6.30
2018,12,08,07,57,6.30
2018,12,08,07,58,6.30
2018,12,08,07,59,6.30
2018,12,08,08,00,6.30
2018,12,08,08,01,6.30
2018,12,08,08,02,6.30
2018,12,08,08,03,6.30
2018,12,08,08,04,6.30
2018,12,08,08,05,6.30
2018,12,08,08,06,6.30
2018,12,08,08,07,6.30
2018,12,08,08,08,6.30
2018,12,08,08,09,6.20
2018,12,08,08,10,6.20
2018,12,08,08,11,6.20
2018,12,08,08,12,6.20
2018,12,08,08,13,6.20
2018,12,08,08,14,6.20
2018,12,08,08,15,6.20
2018,12,08,08,16,6.20
2018,12,08,08,17,6.20
2018,12,08,08,18,6.20
2018,12,08,08,19,6.20
2018,12,08,08,20,6.30
2018,12,08,08,21,6.30
2018,12,08,08,22,6.30
2018,12,08,08,23,6.30
2018,12,08,08,24,6.20
2018,12,08,08,25,6.20
2018,12,08,08,26,6.20
2018,12,08,08,27,6.20
2018,12,08,08,28,6.10
2018,12,08,08,29,6.10
2018,12,08,08,30,6.00
2018,12,08,08,31,6.00
2018,12,08,08,32,6.00
2018,12,08,08,33,5.90
2018,12,08,08,34,5.80
2018,12,08,08,35,5.80
2018,12,08,08,36,5.70
2018,12,08,08,37,5.70
2018,12,08,08,38,5.60
2018,12,08,08,39,5.60
2018,12,08,08,40,5.50
2018,12,08,08,41,5.40
2018,12,08,08,42,5.40
2018,12,08,08,43,5.30
2018,12,08,08,44,5.20
2018,12,08,08,45,5.20
2018,12,08,08,46,5.10
2018,12,08,08,47,5.00
2018,12,08,08,48,5.00
2018,12,08,08,49,4.90
2018,12,08,08,50,4.80
2018,12,08,08,51,4.80
2018,12,08,08,52,4.80
2018,12,08,08,53,4.70
2018,12,08,08,54,4.70
2018,12,08,08,55,4.70
2018,12,08,08,56,4.60
2018,12,08,08,57,4.60
2018,12,08,08,58,4.60
2018,12,08,08,59,4.50
2018,12,08,09,00,4.50
2018,12,08,09,01,4.50
2018,12,08,09,02,4.40
2018,12,08,09,03,4.40
2018,12,08,09,04,4.40
2018,12,08,09,05,4.40
2018,12,08,09,06,4.40
2018,12,08,09,07,4.30
2018,12,08,09,08,4.30
2018,12,08,09,09,4.30
2018,12,08,09,10,4.30
2018,12,08,09,11,4.30
2018,12,08,09,12,4.30
2018,12,08,09,13,4.30
2018,12,08,09,14,4.30
2018,12,08,09,15,4.20
2018,12,08,09,16,4.20
2018,12,08,09,17,4.20
2018,12,08,09,18,4.20
2018,12,08,09,19,4.20
2018,12,08,09,20,4.20
2018,12,08,09,21,4.20
2018,12,08,09,22,4.20
2018,12,08,09,23,4.30
2018,12,08,09,24,4.30
2018,12,08,09,25,4.30
2018,12,08,09,26,4.30
2018,12,08,09,27,4.30
2018,12,08,09,28,4.30
2018,12,08,09,29,4.30
2018,12,08,09,30,4.30
2018,12,08,09,31,4.30
2018,12,08,09,32,4.30
2018,12,08,09,33,4.30
2018,12,08,09,34,4.30
2018,12,08,09,35,4.30
2018,12,08,09,36,4.30
2018,12,08,09,37,4.20
2018,12,08,09,38,4.20
2018,12,08,09,39,4.20
2018,12,08,09,40,4.20
2018,12,08,09,41,4.20
2018,12,08,09,42,4.20
2018,12,08,09,43,4.20
2018,12,08,09,44,4.20
2018,12,08,09,45,4.20
2018,12,08,09,46,4.20
2018,12,08,09,47,4.20
2018,12,08,09,48,4.20
2018,12,08,09,49,4.20
2018,12,08,09,50,4.20
2018,12,08,09,51,4.20
2018,12,08,09,52,4.20
2018,12,08,09,53,4.20
2018,12,08,09,54,4.20
2018,12,08,09,55,4.20
2018,12,08,09,56,4.20
2018,12,08,09,57,4.20
2018,12,08,09,58,4.20
2018,12,08,09,59,4.20
2018,12,08,10,00,4.20
2018,12,08,10,01,4.20
2018,12,08,10,02,4.20
2018,12,08,10,03,4.20
2018,12,08,10,04,4.20
2018,12,08,10,05,4.20
2018,12,08,10,06,4.20
2018,12,08,10,07,4.20
2018,12,08,10,08,4.20
2018,12,08,10,09,4.20
2018,12,08,10,10,4.30
2018,12,08,10,11,4.30
2018,12,08,10,12,4.30
2018,12,08,10,13,4.30
2018,12,08,10,14,4.30
2018,12,08,10,15,4.30
2018,12,08,10,16,4.30
2018,12,08,10,17,4.30
2018,12,08,10,18,4.30
2018,12,08,10,19,4.40
2018,12,08,10,20,4.40
2018,12,08,10,21,4.40
2018,12,08,10,22,4.40
2018,12,08,10,23,4.40
2018,12,08,10,24,4.40
2018,12,08,10,25,4.40
2018,12,08,10,26,4.40
2018,12,08,10,27,4.40
2018,12,08,10,28,4.40
2018,12,08,10,29,4.40
2018,12,08,10,30,4.40
2018,12,08,10,31,4.40
2018,12,08,10,32,4.40
2018,12,08,10,33,4.40
2018,12,08,10,34,4.50
2018,12,08,10,35,4.50
2018,12,08,10,36,4.50
2018,12,08,10,37,4.50
2018,12,08,10,38,4.50
2018,12,08,10,39,4.50
2018,12,08,10,40,4.50
2018,12,08,10,41,4.60
2018,12,08,10,42,4.60
2018,12,08,10,43,4.60
2018,12,08,10,44,4.60
2018,12,08,10,45,4.60
2018,12,08,10,46,4.70
2018,12,08,10,47,4.70
2018,12,08,10,48,4.70
2018,12,08,10,49,4.70
2018,12,08,10,50,4.70
2018,12,08,10,51,4.80
2018,12,08,10,52,4.80
2018,12,08,10,53,4.80
2018,12,08,10,54,4.80
2018,12,08,10,55,4.80
2018,12,08,10,56,4.90
2018,12,08,10,57,4.90
2018,12,08,10,58,4.90
2018,12,08,10,59,4.90
2018,12,08,11,00,5.00
2018,12,08,11,01,5.00
2018,12,08,11,02,5.00
2018,12,08,11,03,5.10
2018,12,08,11,04,5.10
2018,12,08,11,05,5.10
2018,12,08,11,06,5.10
2018,12,08,11,07,5.10
2018,12,08,11,08,5.10
2018,12,08,11,09,5.10
2018,12,08,11,10,5.10
2018,12,08,11,11,5.20
2018,12,08,11,12,5.20
2018,12,08,11,13,5.20
2018,12,08,11,14,5.20
2018,12,08,11,15,5.20
2018,12,08,11,16,5.20
2018,12,08,11,17,5.30
2018,12,08,11,18,5.30
2018,12,08,11,19,5.30
2018,12,08,11,20,5.30
2018,12,08,11,21,5.30
2018,12,08,11,22,5.30
2018,12,08,11,23,5.40
2018,12,08,11,24,5.40
2018,12,08,11,25,5.40
2018,12,08,11,26,5.40
2018,12,08,11,27,5.40
2018,12,08,11,28,5.50
2018,12,08,11,29,5.50
2018,12,08,11,30,5.50
2018,12,08,11,31,5.50
2018,12,08,11,32,5.50
2018,12,08,11,33,5.50
2018,12,08,11,34,5.60
2018,12,08,11,35,5.60
2018,12,08,11,36,5.60
2018,12,08,11,37,5.60
2018,12,08,11,38,5.60
2018,12,08,11,39,5.60
2018,12,08,11,40,5.60
2018,12,08,11,41,5.70
2018,12,08,11,42,5.70
2018,12,08,11,43,5.80
2018,12,08,11,44,5.90
2018,12,08,11,45,6.00
2018,12,08,11,46,6.20
2018,12,08,11,47,6.30
2018,12,08,11,48,6.40
2018,12,08,11,49,6.50
2018,12,08,11,50,6.50
2018,12,08,11,51,6.60
2018,12,08,11,52,6.60
2018,12,08,11,53,6.70
2018,12,08,11,54,6.70
2018,12,08,11,55,6.70
2018,12,08,11,56,6.80
2018,12,08,11,57,6.80
2018,12,08,11,58,6.80
2018,12,08,11,59,6.80
2018,12,08,12,00,6.80
2018,12,08,12,01,6.80
2018,12,08,12,02,6.80
2018,12,08,12,03,6.80
2018,12,08,12,04,6.80
2018,12,08,12,05,6.80
2018,12,08,12,06,6.80
2018,12,08,12,07,6.80
2018,12,08,12,08,6.90
2018,12,08,12,09,6.90
2018,12,08,12,10,6.90
2018,12,08,12,11,6.90
2018,12,08,12,12,7.00
2018,12,08,12,13,7.00
2018,12,08,12,14,7.00
2018,12,08,12,15,7.00
2018,12,08,12,16,7.00
2018,12,08,12,17,7.00
2018,12,08,12,18,7.00
2018,12,08,12,19,7.10
2018,12,08,12,20,7.10
2018,12,08,12,21,7.10
2018,12,08,12,22,7.10
2018,12,08,12,23,7.10
2018,12,08,12,24,7.10
2018,12,08,12,25,7.10
2018,12,08,12,26,7.10
2018,12,08,12,27,7.10
2018,12,08,12,28,7.10
2018,12,08,12,29,7.20
2018,12,08,12,30,7.20
2018,12,08,12,31,7.20
2018,12,08,12,32,7.20
2018,12,08,12,33,7.20
2018,12,08,12,34,7.20
2018,12,08,12,35,7.20
2018,12,08,12,36,7.20
2018,12,08,12,37,7.20
2018,12,08,12,38,7.20
2018,12,08,12,39,7.20
2018,12,08,12,40,7.20
2018,12,08,12,41,7.20
2018,12,08,12,42,7.20
2018,12,08,12,43,7.20
2018,12,08,12,44,7.20
2018,12,08,12,45,7.20
2018,12,08,12,46,7.20
2018,12,08,12,47,7.20
2018,12,08,12,48,7.20
2018,12,08,12,49,7.20
2018,12,08,12,50,7.30
2018,12,08,12,51,7.30
2018,12,08,12,52,7.30
2018,12,08,12,53,7.30
2018,12,08,12,54,7.30
2018,12,08,12,55,7.30
2018,12,08,12,56,7.30
2018,12,08,12,57,7.30
2018,12,08,12,58,7.40
2018,12,08,12,59,7.40
2018,12,08,13,00,7.40
2018,12,08,13,01,7.40
2018,12,08,13,02,7.40
2018,12,08,13,03,7.40
2018,12,08,13,04,7.40
2018,12,08,13,05,7.40
2018,12,08,13,06,7.40
2018,12,08,13,07,7.40
2018,12,08,13,08,7.40
2018,12,08,13,09,7.40
2018,12,08,13,10,7.30
2018,12,08,13,11,7.30
2018,12,08,13,12,7.30
2018,12,08,13,13,7.30
2018,12,08,13,14,7.30
2018,12,08,13,15,7.30
2018,12,08,13,16,7.30
2018,12,08,13,17,7.30
2018,12,08,13,18,7.30
2018,12,08,13,19,7.30
2018,12,08,13,20,7.20
2018,12,08,13,21,7.20
2018,12,08,13,22,7.20
2018,12,08,13,23,7.20
2018,12,08,13,24,7.20
2018,12,08,13,25,7.20
2018,12,08,13,26,7.20
2018,12,08,13,27,7.20
2018,12,08,13,28,7.20
2018,12,08,13,29,7.20
2018,12,08,13,30,7.20
2018,12,08,13,31,7.20
2018,12,08,13,32,7.20
2018,12,08,13,33,7.20
2018,12,08,13,34,7.10
2018,12,08,13,35,7.10
2018,12,08,13,36,7.10
2018,12,08,13,37,7.10
2018,12,08,13,38,7.10
2018,12,08,13,39,7.10
2018,12,08,13,40,7.10
2018,12,08,13,41,7.10
2018,12,08,13,42,7.10
2018,12,08,13,43,7.10
2018,12,08,13,44,7.10
2018,12,08,13,45,7.10
2018,12,08,13,46,7.00
2018,12,08,13,47,7.00
2018,12,08,13,48,7.00
2018,12,08,13,49,7.00
2018,12,08,13,50,7.00
2018,12,08,13,51,7.00
2018,12,08,13,52,7.00
2018,12,08,13,53,6.90
2018,12,08,13,54,6.90
2018,12,08,13,55,6.90
2018,12,08,13,56,6.90
2018,12,08,13,57,6.90
2018,12,08,13,58,6.90
2018,12,08,13,59,6.90
2018,12,08,14,00,6.90
2018,12,08,14,01,6.90
2018,12,08,14,02,6.90
2018,12,08,14,03,6.90
2018,12,08,14,04,7.00
2018,12,08,14,05,7.00
2018,12,08,14,06,7.00
2018,12,08,14,07,7.00
2018,12,08,14,08,7.00
2018,12,08,14,09,7.00
2018,12,08,14,10,7.00
2018,12,08,14,11,7.00
2018,12,08,14,12,7.00
2018,12,08,14,13,7.00
2018,12,08,14,14,6.90
2018,12,08,14,15,7.00
2018,12,08,14,16,6.90
2018,12,08,14,17,6.90
2018,12,08,14,18,6.90
2018,12,08,14,19,6.90
2018,12,08,14,20,6.90
2018,12,08,14,21,6.90
2018,12,08,14,22,6.90
2018,12,08,14,23,6.90
2018,12,08,14,24,6.90
2018,12,08,14,25,6.90
2018,12,08,14,26,6.90
2018,12,08,14,27,7.00
2018,12,08,14,28,6.90
2018,12,08,14,29,7.00
2018,12,08,14,30,7.00
2018,12,08,14,31,7.00
2018,12,08,14,32,7.00
2018,12,08,14,33,7.00
2018,12,08,14,34,7.00
2018,12,08,14,35,7.00
2018,12,08,14,36,7.10
2018,12,08,14,37,7.10
2018,12,08,14,38,7.10
2018,12,08,14,39,7.10
2018,12,08,14,40,7.10
2018,12,08,14,41,7.10
2018,12,08,14,42,7.10
2018,12,08,14,43,7.10
2018,12,08,14,44,7.10
2018,12,08,14,45,7.20
2018,12,08,14,46,7.20
2018,12,08,14,47,7.20
2018,12,08,14,48,7.20
2018,12,08,14,49,7.20
2018,12,08,14,50,7.20
2018,12,08,14,51,7.20
2018,12,08,14,52,7.20
2018,12,08,14,53,7.20
2018,12,08,14,54,7.20
2018,12,08,14,55,7.20
2018,12,08,14,56,7.20
2018,12,08,14,57,7.20
2018,12,08,14,58,7.20
2018,12,08,14,59,7.20
2018,12,08,15,00,7.20
2018,12,08,15,01,7.20
2018,12,08,15,02,7.20
2018,12,08,15,03,7.20
2018,12,08,15,04,7.20
2018,12,08,15,05,7.20
2018,12,08,15,06,7.20
2018,12,08,15,07,7.20
2018,12,08,15,08,7.20
2018,12,08,15,09,7.20
2018,12,08,15,10,7.20
2018,12,08,15,11,7.20
2018,12,08,15,12,7.20
2018,12,08,15,13,7.20
2018,12,08,15,14,7.20
2018,12,08,15,15,7.20
2018,12,08,15,16,7.20
2018,12,08,15,17,7.20
2018,12,08,15,18,7.20
2018,12,08,15,19,7.20
2018,12,08,15,20,7.30
2018,12,08,15,21,7.30
2018,12,08,15,22,7.30
2018,12,08,15,23,7.30
2018,12,08,15,24,7.30
2018,12,08,15,25,7.30
2018,12,08,15,26,7.30
2018,12,08,15,27,7.30
2018,12,08,15,28,7.30
2018,12,08,15,29,7.30
2018,12,08,15,30,7.30
2018,12,08,15,31,7.30
2018,12,08,15,32,7.40
2018,12,08,15,33,7.30
2018,12,08,15,34,7.30
2018,12,08,15,35,7.30
2018,12,08,15,36,7.30
2018,12,08,15,37,7.30
2018,12,08,15,38,7.30
2018,12,08,15,39,7.30
2018,12,08,15,40,7.20
2018,12,08,15,41,7.20
2018,12,08,15,42,7.20
2018,12,08,15,43,7.20
2018,12,08,15,44,7.20
2018,12,08,15,45,7.10
2018,12,08,15,46,7.10
2018,12,08,15,47,7.10
2018,12,08,15,48,7.00
2018,12,08,15,49,6.90
2018,12,08,15,50,6.90
2018,12,08,15,51,6.80
2018,12,08,15,52,6.80
2018,12,08,15,53,6.70
2018,12,08,15,54,6.70
2018,12,08,15,55,6.60
2018,12,08,15,56,6.60
2018,12,08,15,57,6.50
2018,12,08,15,58,6.50
2018,12,08,15,59,6.40
2018,12,08,16,00,6.40
2018,12,08,16,01,6.40
2018,12,08,16,02,6.30
2018,12,08,16,03,6.30
2018,12,08,16,04,6.30
2018,12,08,16,05,6.20
2018,12,08,16,06,6.20
2018,12,08,16,07,6.20
2018,12,08,16,08,6.20
2018,12,08,16,09,6.10
2018,12,08,16,10,6.10
2018,12,08,16,11,6.10
2018,12,08,16,12,6.00
2018,12,08,16,13,6.00
2018,12,08,16,14,5.90
2018,12,08,16,15,5.90
2018,12,08,16,16,5.90
2018,12,08,16,17,5.90
2018,12,08,16,18,5.90
2018,12,08,16,19,5.80
2018,12,08,16,20,5.80
2018,12,08,16,21,5.80
2018,12,08,16,22,5.80
2018,12,08,16,23,5.80
2018,12,08,16,24,5.80
2018,12,08,16,25,5.70
2018,12,08,16,26,5.70
2018,12,08,16,27,5.70
2018,12,08,16,28,5.70
2018,12,08,16,29,5.70
2018,12,08,16,30,5.70
2018,12,08,16,31,5.70
2018,12,08,16,32,5.60
2018,12,08,16,33,5.60
2018,12,08,16,34,5.60
2018,12,08,16,35,5.60
2018,12,08,16,36,5.60
2018,12,08,16,37,5.60
2018,12,08,16,38,5.60
2018,12,08,16,39,5.60
2018,12,08,16,40,5.60
2018,12,08,16,41,5.50
2018,12,08,16,42,5.50
2018,12,08,16,43,5.50
2018,12,08,16,44,5.50
2018,12,08,16,45,5.50
2018,12,08,16,46,5.50
2018,12,08,16,47,5.50
2018,12,08,16,48,5.50
2018,12,08,16,49,5.50
2018,12,08,16,50,5.50
2018,12,08,16,51,5.50
2018,12,08,16,52,5.40
2018,12,08,16,53,5.40
2018,12,08,16,54,5.40
2018,12,08,16,55,5.40
2018,12,08,16,56,5.40
2018,12,08,16,57,5.40
2018,12,08,16,58,5.40
2018,12,08,16,59,5.40
2018,12,08,17,00,5.40
2018,12,08,17,01,5.40
2018,12,08,17,02,5.40
2018,12,08,17,03,5.40
2018,12,08,17,04,5.40
2018,12,08,17,05,5.40
2018,12,08,17,06,5.40
2018,12,08,17,07,5.40
2018,12,08,17,08,5.40
2018,12,08,17,09,5.40
2018,12,08,17,10,5.40
2018,12,08,17,11,5.40
2018,12,08,17,12,5.40
2018,12,08,17,13,5.40
2018,12,08,17,14,5.40
2018,12,08,17,15,5.50
2018,12,08,17,16,5.50
2018,12,08,17,17,5.60
2018,12,08,17,18,5.60
2018,12,08,17,19,5.60
2018,12,08,17,20,5.60
2018,12,08,17,21,5.60
2018,12,08,17,22,5.60
2018,12,08,17,23,5.60
2018,12,08,17,24,5.60
2018,12,08,17,25,5.60
2018,12,08,17,26,5.60
2018,12,08,17,27,5.60
2018,12,08,17,28,5.60
2018,12,08,17,29,5.60
2018,12,08,17,30,5.60
2018,12,08,17,31,5.70
2018,12,08,17,32,5.80
2018,12,08,17,33,5.90
2018,12,08,17,34,5.90
2018,12,08,17,35,6.00
2018,12,08,17,36,6.10
2018,12,08,17,37,6.20
2018,12,08,17,38,6.30
2018,12,08,17,39,6.40
2018,12,08,17,40,6.50
2018,12,08,17,41,6.60
2018,12,08,17,42,6.70
2018,12,08,17,43,6.80
2018,12,08,17,44,6.80
2018,12,08,17,45,6.90
2018,12,08,17,46,6.90
2018,12,08,17,47,7.00
2018,12,08,17,48,7.00
2018,12,08,17,49,7.10
2018,12,08,17,50,7.10
2018,12,08,17,51,7.10
2018,12,08,17,52,7.20
2018,12,08,17,53,7.20
2018,12,08,17,54,7.20
2018,12,08,17,55,7.30
2018,12,08,17,56,7.30
2018,12,08,17,57,7.30
2018,12,08,17,58,7.30
2018,12,08,17,59,7.30
2018,12,08,18,00,7.30
2018,12,08,18,01,7.30
2018,12,08,18,02,7.30
2018,12,08,18,03,7.30
2018,12,08,18,04,7.30
2018,12,08,18,05,7.40
2018,12,08,18,06,7.40
2018,12,08,18,07,7.40
2018,12,08,18,08,7.40
2018,12,08,18,09,7.40
2018,12,08,18,10,7.40
2018,12,08,18,11,7.40
2018,12,08,18,12,7.40
2018,12,08,18,13,7.40
2018,12,08,18,14,7.40
2018,12,08,18,15,7.40
2018,12,08,18,16,7.40
2018,12,08,18,17,7.40
2018,12,08,18,18,7.40
2018,12,08,18,19,7.40
2018,12,08,18,20,7.40
2018,12,08,18,21,7.40
2018,12,08,18,22,7.40
2018,12,08,18,23,7.40
2018,12,08,18,24,7.40
2018,12,08,18,25,7.40
2018,12,08,18,26,7.30
2018,12,08,18,27,7.30
2018,12,08,18,28,7.20
2018,12,08,18,29,7.10
2018,12,08,18,30,7.00
2018,12,08,18,31,6.90
2018,12,08,18,32,6.80
2018,12,08,18,33,6.80
2018,12,08,18,34,6.70
2018,12,08,18,35,6.60
2018,12,08,18,36,6.60
2018,12,08,18,37,6.50
2018,12,08,18,38,6.40
2018,12,08,18,39,6.30
2018,12,08,18,40,6.30
2018,12,08,18,41,6.20
2018,12,08,18,42,6.20
2018,12,08,18,43,6.10
2018,12,08,18,44,6.10
2018,12,08,18,45,6.00
2018,12,08,18,46,6.00
2018,12,08,18,47,5.90
2018,12,08,18,48,5.90
2018,12,08,18,49,5.80
2018,12,08,18,50,5.80
2018,12,08,18,51,5.80
2018,12,08,18,52,5.80
2018,12,08,18,53,5.70
2018,12,08,18,54,5.70
2018,12,08,18,55,5.70
2018,12,08,18,56,5.70
2018,12,08,18,57,5.60
2018,12,08,18,58,5.60
2018,12,08,18,59,5.60
2018,12,08,19,00,5.60
2018,12,08,19,01,5.60
2018,12,08,19,02,5.50
2018,12,08,19,03,5.50
2018,12,08,19,04,5.50
2018,12,08,19,05,5.50
2018,12,08,19,06,5.40
2018,12,08,19,07,5.40
2018,12,08,19,08,5.40
2018,12,08,19,09,5.40
2018,12,08,19,10,5.40
2018,12,08,19,11,5.30
2018,12,08,19,12,5.30
2018,12,08,19,13,5.30
2018,12,08,19,14,5.30
2018,12,08,19,15,5.30
2018,12,08,19,16,5.30
2018,12,08,19,17,5.30
2018,12,08,19,18,5.30
2018,12,08,19,19,5.30
2018,12,08,19,20,5.30
2018,12,08,19,21,5.30
2018,12,08,19,22,5.20
2018,12,08,19,23,5.20
2018,12,08,19,24,5.20
2018,12,08,19,25,5.20
2018,12,08,19,26,5.20
2018,12,08,19,27,5.20
2018,12,08,19,31,5.20
2018,12,08,19,32,5.20
2018,12,08,19,33,5.20
2018,12,08,19,34,5.20
2018,12,08,19,35,5.40
2018,12,08,19,36,5.50
2018,12,08,19,37,5.70
2018,12,08,19,38,5.80
2018,12,08,19,39,5.80
2018,12,08,19,40,5.80
2018,12,08,19,41,5.80
2018,12,08,19,42,5.70
2018,12,08,19,43,5.70
2018,12,08,19,44,5.60
2018,12,08,19,45,5.60
2018,12,08,19,46,5.50
2018,12,08,19,47,5.50
2018,12,08,19,48,5.40
2018,12,08,19,49,5.30
2018,12,08,19,50,5.30
2018,12,08,19,51,5.20
2018,12,08,19,52,5.20
2018,12,08,19,53,5.10
2018,12,08,19,54,5.10
2018,12,08,19,55,5.10
2018,12,08,19,56,5.00
2018,12,08,19,57,5.00
2018,12,08,19,58,4.90
2018,12,08,19,59,4.90
2018,12,08,20,00,4.90
2018,12,08,20,01,4.80
2018,12,08,20,02,4.80
2018,12,08,20,03,4.80
2018,12,08,20,04,4.70
2018,12,08,20,05,4.70
2018,12,08,20,06,4.70
2018,12,08,20,07,4.60
2018,12,08,20,08,4.60
2018,12,08,20,09,4.60
2018,12,08,20,10,4.60
2018,12,08,20,11,4.50
2018,12,08,20,12,4.50
2018,12,08,20,13,4.50
2018,12,08,20,14,4.40
2018,12,08,20,15,4.40
2018,12,08,20,16,4.40
2018,12,08,20,17,4.40
2018,12,08,20,18,4.40
2018,12,08,20,19,4.40
2018,12,08,20,20,4.30
2018,12,08,20,21,4.30
2018,12,08,20,22,4.30
2018,12,08,20,23,4.30
2018,12,08,20,24,4.30
2018,12,08,20,25,4.30
2018,12,08,20,26,4.30
2018,12,08,20,27,4.30
2018,12,08,20,28,4.20
2018,12,08,20,29,4.20
2018,12,08,20,30,4.20
2018,12,08,20,31,4.20
2018,12,08,20,32,4.20
2018,12,08,20,33,4.20
2018,12,08,20,34,4.10
2018,12,08,20,35,4.10
2018,12,08,20,36,4.10
2018,12,08,20,37,4.10
2018,12,08,20,38,4.10
2018,12,08,20,39,4.10
2018,12,08,20,40,4.10
2018,12,08,20,41,4.00
2018,12,08,20,42,4.00
2018,12,08,20,43,4.00
2018,12,08,20,44,4.00
2018,12,08,20,45,4.00
2018,12,08,20,46,4.00
2018,12,08,20,47,4.00
2018,12,08,20,48,4.00
2018,12,08,20,49,4.00
2018,12,08,20,50,4.00
2018,12,08,20,51,4.10
2018,12,08,20,52,4.20
2018,12,08,20,53,4.30
2018,12,08,20,54,4.40
2018,12,08,20,55,4.60
2018,12,08,20,56,4.70
2018,12,08,20,57,4.70
2018,12,08,20,58,4.70
2018,12,08,20,59,4.70
2018,12,08,21,00,4.70
2018,12,08,21,01,4.80
2018,12,08,21,02,5.00
2018,12,08,21,03,5.30
2018,12,08,21,04,5.60
2018,12,08,21,05,5.90
2018,12,08,21,06,6.20
2018,12,08,21,07,6.40
2018,12,08,21,08,6.60
2018,12,08,21,09,6.80
2018,12,08,21,10,6.90
2018,12,08,21,11,7.10
2018,12,08,21,12,7.20
2018,12,08,21,13,7.20
2018,12,08,21,14,7.30
2018,12,08,21,15,7.40
2018,12,08,21,16,7.40
2018,12,08,21,17,7.40
2018,12,08,21,18,7.40
2018,12,08,21,19,7.40
2018,12,08,21,20,7.40
2018,12,08,21,21,7.40
2018,12,08,21,22,7.40
2018,12,08,21,23,7.30
2018,12,08,21,24,7.30
2018,12,08,21,25,7.30
2018,12,08,21,26,7.30
2018,12,08,21,27,7.30
2018,12,08,21,28,7.30
2018,12,08,21,29,7.30
2018,12,08,21,30,7.20
2018,12,08,21,31,7.20
2018,12,08,21,32,7.20
2018,12,08,21,33,7.20
2018,12,08,21,34,7.20
2018,12,08,21,35,7.20
2018,12,08,21,36,7.20
2018,12,08,21,37,7.20
2018,12,08,21,38,7.10
2018,12,08,21,39,7.10
2018,12,08,21,40,7.10
2018,12,08,21,41,7.10
2018,12,08,21,42,7.10
2018,12,08,21,43,7.10
2018,12,08,21,44,7.00
2018,12,08,21,45,7.00
2018,12,08,21,46,7.00
2018,12,08,21,47,7.10
2018,12,08,21,48,7.20
2018,12,08,21,49,7.20
2018,12,08,21,50,7.20
2018,12,08,21,51,7.30
2018,12,08,21,52,7.30
2018,12,08,21,53,7.30
2018,12,08,21,54,7.30
2018,12,08,21,55,7.30
2018,12,08,21,56,7.30
2018,12,08,21,57,7.30
2018,12,08,21,58,7.30
2018,12,08,21,59,7.30
2018,12,08,22,00,7.20
2018,12,08,22,01,7.10
2018,12,08,22,02,7.10
2018,12,08,22,03,7.00
2018,12,08,22,04,6.90
2018,12,08,22,05,6.80
2018,12,08,22,06,6.70
2018,12,08,22,07,6.60
2018,12,08,22,08,6.50
2018,12,08,22,09,6.50
2018,12,08,22,10,6.40
2018,12,08,22,11,6.30
2018,12,08,22,12,6.30
2018,12,08,22,13,6.20
2018,12,08,22,14,6.20
2018,12,08,22,15,6.10
2018,12,08,22,16,6.10
2018,12,08,22,17,6.00
2018,12,08,22,18,6.00
2018,12,08,22,19,5.90
2018,12,08,22,20,5.90
2018,12,08,22,21,5.80
2018,12,08,22,22,5.80
2018,12,08,22,23,5.80
2018,12,08,22,24,5.70
2018,12,08,22,25,5.70
2018,12,08,22,26,5.70
2018,12,08,22,27,5.70
2018,12,08,22,28,5.60
2018,12,08,22,29,5.60
2018,12,08,22,30,5.60
2018,12,08,22,31,5.60
2018,12,08,22,32,5.60
2018,12,08,22,33,5.60
2018,12,08,22,34,5.60
2018,12,08,22,35,5.50
2018,12,08,22,36,5.50
2018,12,08,22,37,5.50
2018,12,08,22,38,5.50
2018,12,08,22,39,5.40
2018,12,08,22,40,5.40
2018,12,08,22,41,5.40
2018,12,08,22,42,5.40
2018,12,08,22,43,5.40
2018,12,08,22,44,5.40
2018,12,08,22,45,5.40
2018,12,08,22,46,5.40
2018,12,08,22,47,5.40
2018,12,08,22,48,5.40
2018,12,08,22,49,5.40
2018,12,08,22,50,5.40
2018,12,08,22,51,5.30
2018,12,08,22,52,5.30
2018,12,08,22,53,5.30
2018,12,08,22,54,5.30
2018,12,08,22,55,5.30
2018,12,08,22,56,5.30
2018,12,08,22,57,5.30
2018,12,08,22,58,5.30
2018,12,08,22,59,5.20
2018,12,08,23,00,5.20
2018,12,08,23,01,5.30
2018,12,08,23,02,5.30
2018,12,08,23,03,5.30
2018,12,08,23,04,5.30
2018,12,08,23,05,5.30
2018,12,08,23,06,5.20
2018,12,08,23,07,5.20
2018,12,08,23,08,5.20
2018,12,08,23,09,5.20
2018,12,08,23,10,5.20
2018,12,08,23,11,5.10
2018,12,08,23,12,5.10
2018,12,08,23,13,5.10
2018,12,08,23,14,5.10
2018,12,08,23,15,5.10
2018,12,08,23,16,5.00
2018,12,08,23,17,5.00
2018,12,08,23,18,5.00
2018,12,08,23,19,4.90
2018,12,08,23,20,4.90
2018,12,08,23,21,4.90
2018,12,08,23,22,4.90
2018,12,08,23,23,4.90
2018,12,08,23,24,4.90
2018,12,08,23,25,4.90
2018,12,08,23,26,4.90
2018,12,08,23,27,4.90
2018,12,08,23,28,5.00
2018,12,08,23,29,5.20
2018,12,08,23,30,5.30
2018,12,08,23,31,5.30
2018,12,08,23,32,5.40
2018,12,08,23,33,5.30
2018,12,08,23,34,5.30
2018,12,08,23,35,5.30
2018,12,08,23,36,5.30
2018,12,08,23,37,5.20
2018,12,08,23,38,5.20
2018,12,08,23,39,5.20
2018,12,08,23,40,5.10
2018,12,08,23,41,5.10
2018,12,08,23,42,5.10
2018,12,08,23,43,5.00
2018,12,08,23,44,5.00
2018,12,08,23,45,4.90
2018,12,08,23,46,4.90
2018,12,08,23,47,4.90
2018,12,08,23,48,4.90
2018,12,08,23,49,4.80
2018,12,08,23,50,4.80
2018,12,08,23,51,4.80
2018,12,08,23,52,4.80
2018,12,08,23,53,4.80
2018,12,08,23,54,4.80
2018,12,08,23,55,4.80
2018,12,08,23,56,4.80
2018,12,08,23,57,4.80
2018,12,08,23,58,4.70
2018,12,08,23,59,4.80
